RH
96 97 95 91 85 86 91 93 91 87 82 78 76 74 73 73 72 69 66 64 68 74 70 64 63 58 50 45 42 44 48 49 48 46 46 47 44 42 46 49 45 36 29 27 28 29 30 30 30 30 28 26 24 23 23 25 28 32 34 34 36 37 39 41 43 46 48 50 52 54 55 53 50 47
90 92 95 96 91 88 89 90 90 89 87 84 79 77 76 76 76 73 68 65 67 73 74 68 66 63 57 52 49 48 50 51 51 48 47 48 45 43 45 49 48 39 31 29 29 32 33 33 34 33 31 30 28 27 27 28 31 34 36 37 37 38 39 41 43 45 47 50 52 55 57 57 54 48
89 90 94 98 94 91 91 90 90 88 90 91 85 79 78 79 79 77 71 66 66 72 77 74 70 66 62 57 55 56 56 56 55 52 51 50 48 46 47 50 49 42 35 31 31 33 35 36 37 36 35 34 32 31 30 31 33 35 37 39 39 39 40 41 43 45 46 49 51 55 59 60 57 51
87 90 93 97 95 92 91 90 91 88 88 95 94 86 82 81 82 80 73 68 67 72 78 79 75 71 67 62 60 63 64 63 62 61 58 56 53 51 51 52 51 46 40 34 33 35 37 38 39 39 38 37 36 35 34 34 35 37 38 40 41 41 41 42 43 45 46 48 49 52 56 58 57 54
80 89 91 93 94 92 88 87 89 86 85 92 97 94 89 86 85 82 76 69 66 70 78 82 82 78 71 67 67 69 70 72 72 70 66 63 59 56 55 54 52 48 43 39 37 37 40 41 41 41 40 40 39 39 38 38 38 39 40 41 42 43 43 43 44 45 47 48 49 51 53 55 55 56
69 87 93 92 94 96 91 87 89 86 84 90 96 96 93 90 88 85 78 72 67 68 74 82 87 85 76 70 71 73 74 77 78 76 73 69 64 60 57 55 52 48 45 43 42 42 43 44 43 43 43 42 43 43 42 41 41 41 42 42 43 44 45 45 46 47 48 49 51 53 54 55 56 59
53 75 95 97 96 100 97 92 93 91 88 91 96 98 95 90 88 87 82 77 72 69 72 78 85 90 85 78 75 74 75 78 80 79 76 70 66 64 60 55 50 46 43 43 45 46 47 47 46 45 46 46 46 47 46 45 44 43 43 44 45 45 46 48 48 49 50 51 53 54 55 55 56 61
34 52 83 98 96 98 101 97 95 94 92 92 96 100 99 92 86 86 85 81 75 72 73 77 81 88 91 87 83 78 74 76 78 77 74 71 69 66 62 56 50 45 42 41 44 47 48 49 49 47 48 49 49 50 50 50 48 46 46 46 47 48 49 50 51 52 53 54 55 55 55 55 56 60
22 29 56 85 94 93 98 99 97 97 97 97 98 99 100 96 89 86 87 85 80 74 73 76 80 85 90 90 89 86 78 74 76 75 72 71 72 71 66 59 51 44 40 38 42 45 45 45 46 46 47 48 50 52 52 53 52 51 50 50 51 52 53 54 55 56 57 58 58 58 56 55 56 58
15 17 28 59 83 87 88 92 94 97 98 99 100 100 99 100 95 88 86 86 84 78 74 75 77 83 90 90 90 91 84 76 73 73 71 70 74 76 72 64 54 44 37 36 40 42 41 40 40 41 43 45 49 51 52 53 55 56 56 57 58 60 61 61 61 61 61 61 60 59 56 55 55 55
10 12 14 29 55 71 75 79 85 91 95 93 94 96 97 100 100 94 87 86 85 81 76 76 76 81 91 94 93 94 89 80 74 72 71 72 75 76 74 69 59 46 36 33 35 38 38 38 38 38 38 39 43 47 48 50 54 58 61 62 61 62 64 65 64 62 60 58 59 58 57 57 58 56
5 9 10 11 23 39 48 55 62 76 88 88 87 91 92 92 95 97 92 86 82 79 76 76 76 77 85 92 96 97 94 85 77 74 72 73 73 73 72 71 63 50 40 34 32 34 36 37 37 37 36 34 35 39 41 44 49 52 55 57 56 57 60 61 62 63 60 56 55 56 57 59 62 61
4 6 9 8 10 17 24 33 41 59 80 86 85 88 88 84 84 88 92 90 83 78 73 73 76 75 77 86 94 99 99 93 83 76 73 71 72 72 72 69 63 55 46 39 35 35 36 37 36 36 37 36 36 40 43 44 47 48 48 50 53 56 59 58 60 65 64 59 56 54 53 55 60 64
5 6 6 7 9 12 22 34 38 51 73 83 81 80 78 78 78 77 84 90 88 81 73 70 75 76 76 83 91 96 100 99 90 79 74 71 71 72 73 72 68 62 57 50 45 44 41 38 38 38 40 43 44 45 49 51 53 54 52 52 56 60 62 61 60 65 67 65 62 59 54 52 57 65
7 8 6 7 9 11 26 47 52 54 66 74 76 74 71 75 79 76 79 87 90 87 77 71 73 74 75 81 88 91 96 99 95 85 78 75 72 70 73 76 76 72 67 60 54 53 46 38 40 44 47 50 52 52 57 61 62 63 62 59 61 65 67 67 65 66 69 69 67 63 58 53 55 62
7 8 5 7 9 10 27 56 68 63 62 64 67 68 68 73 78 77 79 84 89 90 83 75 74 72 72 78 81 82 88 94 94 89 82 80 78 74 72 76 80 81 77 68 60 59 55 45 41 46 51 54 55 56 61 65 67 71 71 66 65 69 72 73 73 73 73 72 69 65 60 57 58 62
5 7 7 7 7 9 27 58 73 69 63 60 57 56 62 74 80 80 83 87 88 90 86 79 76 74 74 78 79 81 84 87 89 91 89 86 84 80 75 73 77 81 80 75 68 65 64 58 51 50 56 57 55 57 61 64 68 73 74 71 70 73 74 75 77 78 78 76 73 69 65 64 64 66
3 7 10 10 7 6 19 48 69 70 64 56 47 41 48 71 87 86 87 93 92 87 84 81 79 79 79 81 85 87 83 79 81 88 93 91 86 82 81 77 76 77 76 75 75 71 71 70 62 59 65 66 62 62 64 66 69 71 73 74 74 75 75 76 79 80 80 80 79 78 76 72 69 70
3 5 9 14 15 7 7 33 60 67 62 53 43 33 32 55 84 88 85 94 98 91 84 80 80 82 81 81 88 92 86 78 76 81 88 92 89 84 83 83 80 78 76 73 72 71 74 78 71 66 72 75 72 71 71 72 73 73 73 75 75 75 75 75 77 79 80 83 86 89 89 83 75 73
3 4 6 11 17 9 7 34 60 64 63 57 43 30 23 34 64 81 79 81 87 89 86 79 78 83 83 81 86 93 92 85 81 80 79 82 87 88 87 86 84 83 82 77 69 63 68 78 77 72 75 77 76 78 80 80 80 81 84 86 84 83 81 78 78 78 81 85 88 93 97 93 86 81
5 5 3 5 13 10 10 39 61 56 55 60 50 36 25 21 39 66 77 76 74 77 81 79 80 84 85 85 88 93 96 96 92 87 79 74 80 87 89 90 90 88 86 84 77 63 61 72 76 74 76 78 78 82 87 92 93 93 95 97 96 95 94 90 88 85 86 87 86 91 97 99 97 93
9 8 4 2 9 10 8 32 59 49 34 42 50 44 30 18 21 42 63 71 70 69 72 75 82 88 91 93 94 92 95 99 98 92 85 80 79 79 81 90 96 94 90 90 86 75 69 75 80 80 81 81 81 85 90 96 101 100 99 99 98 97 98 96 94 93 92 91 90 93 97 97 96 94
13 11 9 4 5 7 4 20 46 42 21 19 28 30 24 17 14 24 41 55 62 66 68 67 74 86 92 92 91 89 89 93 94 92 90 88 82 72 71 79 87 88 91 95 96 89 84 88 91 90 84 78 77 85 91 93 98 101 100 100 99 99 99 97 95 95 94 93 94 96 97 97 95 92
19 16 15 11 6 6 6 13 26 29 25 23 18 14 15 15 13 20 32 40 47 55 59 59 67 78 81 81 86 90 92 92 91 92 95 96 90 79 71 72 72 74 83 96 101 98 93 93 96 96 90 80 77 84 92 95 99 101 99 99 100 99 99 98 97 96 94 95 98 99 99 100 96 90
28 22 19 17 14 11 9 13 20 24 30 35 28 19 17 14 12 17 27 34 41 47 51 58 70 76 75 82 94 99 98 96 94 96 99 100 98 89 79 75 72 72 81 94 101 101 96 95 97 99 98 93 85 83 84 88 94 100 101 100 99 98 98 97 95 93 92 94 98 100 100 98 93 90
34 33 28 23 22 20 14 12 16 22 25 25 24 25 24 18 15 17 20 28 42 54 61 71 80 79 77 89 100 98 94 96 98 98 98 98 96 89 82 82 85 87 91 98 100 100 100 98 99 100 100 98 91 81 74 73 82 96 102 101 99 99 95 88 85 87 92 95 98 99 97 93 91 94
35 40 38 31 26 26 23 16 12 14 17 15 14 21 26 26 27 28 29 38 54 66 73 77 83 86 87 91 94 92 89 92 95 96 95 95 94 90 88 93 97 96 97 101 100 100 100 98 97 99 99 95 89 81 73 72 80 94 102 102 100 96 90 85 87 93 96 97 97 96 93 91 95 100
33 39 43 40 33 27 24 22 14 10 12 13 14 21 26 27 30 32 37 53 69 75 74 74 78 89 93 90 91 95 93 92 92 94 95 97 99 98 97 100 100 98 99 102 101 99 98 95 95 97 95 89 83 76 71 72 81 92 99 101 99 96 94 94 96 96 92 88 88 88 87 92 98 97
28 35 41 40 38 37 35 28 19 13 11 10 12 25 36 34 31 35 42 56 69 73 73 76 81 91 97 96 96 99 98 97 96 93 93 98 101 100 100 100 100 100 101 101 99 97 97 96 96 97 95 89 82 76 73 74 82 92 97 98 98 100 99 95 89 85 81 77 75 76 81 89 91 86
23 30 37 39 50 69 69 48 25 15 13 8 3 17 39 43 40 47 57 64 72 79 84 89 91 95 99 100 99 98 97 99 100 95 94 99 101 100 101 101 100 101 101 100 99 98 98 99 99 99 99 96 91 88 85 82 86 93 97 98 98 99 100 95 85 78 73 69 68 70 75 80 80 78
18 24 30 35 52 77 83 63 37 19 12 9 4 10 32 47 49 55 62 65 73 86 95 98 99 99 99 99 100 100 100 100 100 99 99 101 101 100 100 100 99 99 100 99 100 99 99 100 100 100 100 100 99 96 90 86 88 93 97 99 100 97 93 86 78 70 64 63 65 69 71 73 77 80
24 24 27 30 42 63 73 63 45 24 10 7 7 8 22 38 44 50 59 64 73 87 96 98 99 99 98 98 99 100 100 98 99 100 101 101 100 99 99 99 99 99 99 99 100 100 99 100 100 101 100 99 99 98 95 92 94 96 96 99 100 94 81 69 62 61 61 61 64 69 73 76 81 85
41 30 22 20 29 49 61 52 39 29 19 11 8 11 27 47 54 55 60 65 69 79 90 97 100 100 99 98 98 98 99 99 99 100 101 100 100 98 99 99 99 99 99 100 100 100 100 100 100 101 100 98 99 100 98 98 99 100 99 98 93 82 69 60 58 60 63 63 64 67 71 75 77 77
55 37 23 19 24 37 52 58 61 65 55 35 22 24 42 67 77 73 73 73 69 70 78 89 96 98 98 99 100 99 98 100 100 99 99 99 99 100 100 100 100 99 100 100 100 100 100 100 100 100 100 100 100 98 94 90 89 89 87 83 74 64 59 60 61 62 63 65 63 61 62 66 68 67
58 44 40 41 38 41 58 77 91 98 88 65 48 41 49 70 85 88 89 91 89 85 87 92 96 97 96 97 99 96 96 99 100 99 98 99 100 100 100 100 100 100 100 100 100 100 100 100 100 100 98 95 91 85 78 73 70 69 69 67 60 54 55 62 68 70 71 72 70 66 63 64 66 66
70 66 70 73 70 72 83 93 99 103 98 82 68 58 52 58 70 79 85 90 93 93 93 94 95 96 96 97 98 96 97 99 99 98 99 100 100 100 100 100 100 100 100 100 100 100 99 96 94 92 88 84 79 74 69 64 57 50 52 58 61 59 56 59 67 75 79 81 81 79 75 70 70 71
91 93 95 94 94 97 100 100 100 102 99 89 81 77 69 61 62 68 74 81 85 84 84 88 92 95 97 99 99 99 100 100 100 100 100 100 99 99 99 99 100 100 100 99 96 95 92 88 85 83 82 82 79 74 75 79 74 58 46 48 59 66 63 59 63 72 79 82 83 82 78 71 68 70
94 97 100 99 100 99 99 101 101 101 97 91 89 93 94 89 87 87 87 89 90 87 87 93 97 98 99 99 99 99 99 99 100 100 100 100 100 99 100 100 100 100 99 96 91 87 82 78 75 73 72 71 69 66 71 86 97 92 73 57 53 58 61 61 64 70 76 79 78 74 71 66 62 62
97 98 100 101 102 100 99 101 101 100 100 98 95 98 100 99 99 99 98 98 99 97 97 100 100 99 100 101 100 100 100 100 101 101 100 99 98 97 98 98 94 91 90 88 82 78 73 69 68 68 65 64 64 64 66 73 86 93 86 70 56 51 51 53 55 57 59 60 59 57 55 53 51 50
100 101 99 98 100 100 99 98 95 93 97 100 99 100 100 99 100 101 100 100 100 99 99 100 99 99 100 99 98 98 97 96 96 94 91 88 85 83 84 84 82 81 81 79 75 71 66 63 61 62 62 62 61 61 61 61 63 66 64 58 52 46 42 38 37 36 34 33 31 30 29 27 26 25
91 98 99 98 98 98 99 99 95 92 95 99 100 100 100 100 101 100 99 98 97 95 94 92 91 91 91 90 89 88 86 86 85 82 79 77 74 72 71 70 69 70 69 67 64 59 53 50 47 45 46 46 45 44 43 41 39 36 33 29 27 24 21 18 16 15 14 13 13 12 12 12 12 12
82 88 96 100 101 99 99 100 98 97 99 101 100 98 95 94 92 89 86 84 83 82 80 78 75 72 70 67 65 64 63 65 65 64 63 63 61 59 56 53 52 50 48 46 44 41 38 35 32 29 28 26 25 23 22 21 21 21 21 22 22 22 23 24 24 24 24 24 23 22 21 21 20 19
87 84 86 91 94 95 98 101 100 98 97 95 92 88 84 81 77 73 68 66 66 65 64 62 59 56 53 51 48 45 42 41 40 39 38 37 36 35 34 33 33 33 32 32 32 31 30 30 29 29 30 30 30 32 34 36 38 38 39 40 41 41 40 38 36 34 31 28 26 25 24 23 22 21
91 89 88 89 88 87 91 97 97 92 88 85 83 80 79 78 76 74 73 73 73 71 69 67 64 62 61 60 60 59 56 53 49 46 44 42 40 40 40 41 43 46 49 52 54 54 54 55 55 55 53 50 48 47 44 42 40 37 35 34 33 31 31 29 28 27 26 25 26 26 27 28 27 25
87 89 91 92 92 91 94 98 96 91 87 85 84 82 81 79 78 77 75 74 72 71 71 73 74 74 74 73 74 75 75 75 73 71 70 68 66 64 63 62 62 61 61 62 62 60 57 54 52 49 45 42 40 37 34 33 31 29 29 29 29 28 30 30 31 34 35 36 36 37 38 39 38 34
Wind_Speed
44 46 48 48 47 45 45 44 43 43 42 42 43 42 41 40 39 37 34 30 28 30 31 32 32 33 33 31 31 29 28 29 29 27 26 25 23 22 22 21 21 21 21 22 22 22 21 21 21 21 21 21 21 21 21 21 21 21 21 21 20 20 21 21 22 23 25 26 26 27 28 29 30 31
44 46 49 50 48 46 45 45 44 44 44 43 43 43 43 42 40 38 36 32 30 30 31 32 34 35 34 33 31 30 29 30 30 29 28 27 25 25 24 22 22 22 22 22 23 23 23 23 22 21 21 21 22 22 22 22 22 22 23 23 22 22 23 23 24 25 26 27 28 29 30 31 32 32
43 45 48 50 48 46 46 46 46 46 45 44 44 43 43 44 42 40 39 34 30 31 32 33 36 37 36 34 32 30 30 31 32 30 29 29 27 25 24 23 23 23 23 23 23 24 25 24 24 23 22 22 23 23 23 23 23 23 24 24 24 24 24 25 26 26 27 28 29 30 31 32 33 33
43 44 47 49 49 47 47 48 48 47 46 46 46 44 44 45 43 42 41 35 30 32 33 34 38 39 38 36 34 32 32 32 33 32 30 30 28 26 25 25 24 24 24 24 24 25 26 26 25 24 24 24 25 25 25 25 24 24 25 25 25 25 26 26 27 28 29 29 30 31 32 33 34 34
45 44 45 47 48 48 49 49 48 48 48 48 47 46 46 46 44 42 42 39 33 33 34 34 37 40 40 38 35 34 33 33 33 32 31 30 28 27 27 26 25 25 26 26 25 26 26 26 26 26 26 26 26 27 27 27 26 25 25 25 26 26 27 28 29 30 31 31 32 33 34 35 35 35
48 46 45 46 47 49 50 51 50 50 49 49 49 49 48 47 46 44 43 42 37 34 35 36 36 39 41 40 37 35 33 32 33 32 31 30 29 28 28 27 27 26 27 27 27 27 27 27 27 27 28 28 28 28 29 29 28 27 27 27 27 28 28 29 30 31 32 33 34 35 36 37 37 37
49 49 48 47 47 49 52 53 53 52 51 51 51 51 50 49 47 46 45 45 41 37 37 38 37 38 41 41 40 38 35 32 32 33 32 31 30 30 29 29 29 28 28 28 28 28 28 29 29 29 29 30 30 30 30 30 30 30 29 28 28 29 30 30 31 32 33 35 36 37 38 39 38 38
52 52 51 48 47 48 51 53 54 54 54 53 53 53 53 51 49 48 47 46 45 41 39 39 39 38 40 42 42 41 37 33 33 33 33 32 31 31 31 30 31 31 30 29 29 30 30 31 31 31 31 31 32 32 31 31 31 31 31 30 30 30 31 32 33 34 35 36 37 38 39 40 40 39
56 55 54 52 48 48 50 51 52 53 54 54 54 54 54 54 52 51 49 47 47 45 42 40 41 40 39 41 43 44 41 36 34 35 35 34 32 32 32 31 32 33 32 31 32 32 32 33 33 32 32 33 34 34 33 32 32 32 32 32 32 33 33 34 35 36 37 38 38 39 40 40 40 40
59 58 57 56 54 52 51 50 50 51 53 55 56 56 56 56 55 54 52 49 49 48 45 42 42 42 40 40 42 44 44 41 37 36 37 36 34 33 32 33 33 35 35 35 35 34 34 34 34 33 33 34 36 36 34 33 32 32 33 34 35 35 35 36 37 37 38 38 38 38 39 39 39 39
61 61 60 59 58 58 57 54 52 51 51 53 55 57 57 57 58 57 55 52 51 50 48 44 43 43 42 41 41 43 46 45 40 38 38 38 36 35 34 34 35 37 38 38 38 37 35 35 35 34 34 35 37 37 36 34 33 33 34 35 36 37 37 38 38 38 38 38 37 37 37 37 37 38
63 63 62 61 61 61 61 59 56 54 53 52 53 55 57 58 60 60 58 55 53 51 50 47 44 44 44 42 41 42 46 47 44 41 41 40 39 39 37 37 37 39 40 40 41 40 38 37 36 35 34 35 37 38 36 35 34 35 36 36 37 38 40 40 40 39 39 39 38 37 37 37 37 38
66 65 64 63 62 61 61 60 59 58 56 54 53 53 55 58 60 61 60 58 55 53 51 49 46 46 46 43 41 41 44 46 48 47 45 42 42 42 41 39 40 41 42 42 42 42 41 39 38 36 34 35 37 39 38 37 37 37 37 38 39 40 42 43 42 41 41 41 40 39 38 38 38 38
67 67 66 65 63 62 60 59 59 60 59 57 55 53 53 56 59 61 62 61 58 55 53 50 48 48 47 45 43 42 43 45 49 51 49 46 45 46 45 43 42 43 44 43 43 43 43 42 41 39 37 36 39 41 41 41 40 39 39 39 40 42 43 45 45 44 44 44 43 42 40 39 39 39
68 68 67 66 65 63 61 60 59 60 61 60 59 55 52 54 58 61 62 62 60 57 54 52 50 49 48 46 45 45 44 45 48 51 52 51 50 49 49 46 43 44 45 46 45 45 44 45 44 42 40 39 41 43 43 43 44 43 42 42 43 44 45 46 47 47 46 47 47 46 44 42 40 40
70 69 68 68 66 65 63 62 60 60 61 61 60 55 51 51 56 60 63 62 61 59 56 53 52 51 49 47 47 48 46 47 49 51 54 55 54 53 52 48 44 45 48 49 47 45 46 48 48 47 45 43 44 45 45 45 46 47 46 46 46 47 48 49 50 50 50 49 49 49 47 45 43 43
71 71 70 69 68 67 65 63 62 61 60 60 60 56 50 49 51 56 60 60 60 60 59 56 54 52 50 49 49 50 50 51 52 52 54 55 56 56 56 52 47 46 49 51 50 48 48 49 50 50 49 47 47 48 48 47 48 49 49 49 49 51 52 52 53 54 53 52 51 50 49 47 46 47
73 73 72 71 70 69 68 66 64 63 62 60 60 57 53 50 50 53 57 59 59 60 60 59 56 54 52 51 50 52 54 55 55 54 54 56 57 59 59 57 53 49 49 51 52 52 50 51 53 53 51 50 51 51 51 51 51 51 51 51 52 53 55 55 56 57 57 55 54 53 51 49 48 48
74 74 73 72 71 70 69 67 66 65 65 64 63 60 57 54 52 53 55 56 57 59 61 61 58 56 55 54 53 53 56 58 58 57 57 57 58 60 61 60 57 54 52 52 53 54 52 53 55 55 54 54 55 55 55 55 54 53 53 53 54 55 56 57 57 58 58 57 56 55 53 52 50 49
73 75 75 74 72 71 70 68 67 66 66 66 66 64 61 58 56 54 53 51 51 54 57 61 61 59 57 57 56 56 58 59 60 61 61 61 61 61 62 61 60 58 57 56 56 56 55 55 56 55 56 57 58 58 58 58 57 56 55 55 56 57 58 58 59 60 60 59 58 56 55 54 53 52
69 73 75 75 74 72 71 69 68 68 67 67 67 66 64 62 60 58 56 53 50 49 50 55 60 60 59 59 59 59 60 61 62 63 65 64 63 63 63 63 62 61 60 60 60 60 58 57 57 56 57 58 57 57 57 58 58 58 57 57 57 58 59 59 60 61 62 61 60 59 57 56 55 54
65 69 73 75 75 73 72 71 69 68 68 69 68 66 66 65 64 63 61 58 55 52 50 50 55 59 61 61 61 61 61 62 64 66 67 67 67 66 66 65 64 64 63 63 64 64 62 60 60 59 58 58 56 55 55 55 56 56 56 57 58 59 59 59 60 61 62 62 61 58 56 55 53 52
64 65 69 73 74 74 73 72 71 69 69 70 70 68 68 67 66 64 62 60 58 57 55 54 56 58 59 60 61 62 62 63 66 68 70 71 71 69 67 67 67 66 66 66 67 66 64 63 63 62 60 59 56 55 54 53 53 54 55 56 57 58 58 58 58 59 60 61 59 57 56 55 53 52
67 66 66 68 71 73 73 73 72 70 68 69 70 69 69 69 66 63 62 60 59 58 58 59 59 59 60 60 61 62 62 63 64 66 70 72 72 71 69 69 69 68 67 68 69 67 64 64 64 63 62 61 58 55 53 52 52 53 55 55 56 57 58 58 59 60 61 62 61 60 59 57 55 54
70 68 67 66 67 69 70 71 71 71 69 68 69 69 69 68 66 64 62 60 59 58 58 59 59 61 62 61 59 58 59 61 63 65 67 69 69 70 70 70 70 69 69 72 73 69 66 64 64 63 62 61 58 55 53 53 53 54 56 57 57 58 59 60 61 62 62 62 61 60 58 55 53 53
72 71 70 67 65 66 67 68 70 71 70 69 69 69 68 66 66 65 62 59 58 58 58 58 58 59 60 58 57 56 57 60 62 62 63 65 67 68 68 67 68 68 69 71 74 72 67 64 63 62 61 59 57 55 56 56 56 56 58 59 59 59 59 60 59 59 60 59 58 56 53 51 51 51
71 72 71 69 66 65 64 65 68 70 71 71 70 68 66 65 65 63 58 56 58 60 60 59 57 57 58 58 57 56 55 55 56 58 60 63 65 66 65 65 68 69 65 64 66 66 64 62 61 60 59 58 57 56 56 57 56 56 58 58 57 56 57 56 54 54 55 55 53 51 50 51 51 51
66 68 68 67 66 65 63 63 65 68 70 70 70 68 66 65 64 61 58 58 61 61 60 59 58 57 57 57 55 54 52 51 52 55 58 61 64 66 65 65 69 69 66 64 63 62 60 59 59 59 58 58 57 55 56 56 55 55 55 55 53 52 51 48 46 47 50 51 50 50 51 52 51 50
60 62 63 63 62 61 61 61 61 64 66 69 70 68 66 63 61 59 60 62 62 60 59 59 58 57 57 57 55 52 50 49 50 53 57 60 62 63 62 61 62 62 63 63 62 60 59 58 58 58 58 57 57 56 56 56 55 53 52 51 50 48 44 41 40 43 46 47 48 50 51 51 50 49
52 56 58 59 56 53 54 56 57 59 62 66 68 67 65 63 62 60 61 62 61 59 58 57 56 56 55 54 52 49 47 46 48 51 53 53 52 52 54 55 57 58 59 59 59 59 59 59 58 58 57 56 56 56 56 55 53 51 50 51 50 46 43 44 45 46 46 46 47 48 48 48 49 48
43 48 53 56 52 48 46 48 52 55 58 61 65 65 63 61 61 61 60 61 60 57 55 54 54 55 55 52 50 49 48 47 45 45 45 45 44 45 48 52 55 56 56 56 58 58 59 59 59 59 58 56 56 56 55 53 51 50 50 51 50 47 47 50 51 50 49 49 48 48 48 48 48 49
33 39 49 56 53 45 40 40 43 48 53 57 60 62 61 59 59 59 59 59 58 56 55 54 53 53 54 55 54 53 53 51 48 45 43 43 44 45 47 49 53 56 58 59 59 58 58 59 60 59 58 56 56 55 53 50 48 48 50 51 51 51 53 54 54 53 52 52 51 51 52 52 52 53
28 32 43 53 51 43 35 33 35 41 48 53 56 58 56 54 55 57 58 59 60 59 57 54 50 47 47 49 50 49 47 47 47 46 44 43 45 46 45 46 47 49 52 53 52 51 53 54 53 53 53 53 52 51 50 48 48 50 52 53 54 56 57 57 57 56 54 53 53 53 54 54 55 55
24 29 36 44 45 40 34 32 36 42 46 49 54 56 55 53 53 54 55 57 59 59 57 54 50 46 44 45 46 44 42 41 42 43 43 42 43 43 43 42 42 43 44 45 45 45 47 48 48 49 50 50 49 49 49 50 51 52 54 55 56 58 59 58 58 57 56 55 54 54 54 54 54 54
21 24 29 32 35 35 34 34 40 46 47 47 52 56 56 55 53 52 53 53 53 53 53 53 52 50 49 49 50 50 48 46 44 42 42 42 43 44 44 44 43 43 43 44 45 46 48 49 50 50 50 51 51 52 52 54 55 55 56 57 58 59 59 59 58 57 56 56 56 56 56 55 54 55
21 20 23 27 29 30 34 40 45 48 47 46 48 51 53 53 52 52 53 53 52 51 51 52 52 50 48 49 50 50 50 48 46 45 43 42 43 45 45 46 46 46 46 46 47 47 48 49 49 50 50 52 53 54 55 56 57 57 58 58 59 59 59 59 59 60 60 60 61 61 61 60 60 60
17 17 20 27 28 27 33 42 49 50 48 45 44 45 47 50 52 53 53 53 52 52 52 51 51 51 50 50 48 46 46 46 47 47 47 46 46 46 45 46 46 46 48 50 52 52 52 51 51 51 52 52 53 54 55 57 60 61 61 61 61 62 62 62 63 64 65 66 66 67 67 66 65 64
1 6 12 20 23 24 29 37 43 46 47 47 46 44 44 46 46 47 48 49 50 51 50 47 45 45 46 46 44 41 41 42 44 46 46 47 48 48 47 46 45 44 45 49 52 52 53 53 54 55 55 56 56 57 57 59 61 63 65 65 66 67 67 68 68 68 69 70 70 71 71 71 70 69
1 2 5 9 12 15 19 25 32 37 39 41 42 42 41 43 43 43 42 43 44 46 46 43 39 38 38 39 39 38 39 40 43 46 47 48 49 50 49 50 50 50 51 53 53 54 54 55 56 58 59 61 62 62 62 63 64 65 67 68 69 70 70 71 71 71 71 72 73 74 74 74 74 74
9 8 8 8 9 12 14 17 23 30 32 32 33 34 33 34 37 39 40 41 42 44 45 45 44 43 42 42 43 44 44 45 47 48 50 51 52 53 54 55 55 56 57 58 58 59 60 61 61 62 63 64 65 66 67 67 68 69 70 71 71 72 73 73 74 75 75 76 76 76 76 76 76 75
12 12 13 14 14 16 18 18 20 25 28 29 30 31 31 31 31 33 35 38 40 42 44 46 47 48 48 48 49 50 50 51 52 53 54 55 56 57 58 59 60 60 61 61 62 63 63 64 65 66 66 67 68 69 70 71 71 72 73 73 73 73 74 74 74 74 74 75 75 75 75 74 74 73
16 16 18 20 18 17 20 23 22 22 24 26 28 29 32 33 34 35 36 38 40 42 44 46 47 49 50 51 52 53 53 54 56 57 58 59 60 61 62 62 63 63 64 65 66 66 67 67 68 69 69 69 69 70 70 70 70 71 71 71 71 71 71 70 70 69 69 69 69 69 68 68 69 68
15 16 18 22 21 19 19 21 21 20 21 24 27 28 29 31 33 34 36 37 39 41 43 44 46 48 50 52 53 54 55 57 58 59 60 61 63 64 64 65 65 66 66 66 67 67 67 68 68 68 68 68 68 68 67 66 66 66 66 66 65 65 65 65 65 64 64 62 62 61 60 60 60 58
15 16 18 22 25 24 22 22 22 21 21 22 25 27 28 28 29 30 32 34 36 38 40 42 44 46 48 50 51 53 54 56 57 58 59 61 62 63 64 64 65 65 65 65 65 65 65 64 64 64 63 63 62 62 61 60 59 59 58 58 57 57 57 56 57 57 56 54 53 51 51 50 49 47
16 17 18 20 23 25 27 28 27 25 24 24 24 26 28 29 31 33 35 37 39 40 42 43 44 45 47 48 50 51 53 54 55 56 57 58 59 59 60 60 60 60 59 59 58 57 57 56 56 55 55 54 53 52 52 52 51 51 51 51 51 51 51 51 51 52 52 52 49 47 47 46 45 43
Wind_Direction
248 247 246 245 244 243 242 243 245 247 247 247 249 251 252 252 252 253 253 250 250 250 249 249 252 252 251 251 252 253 256 258 260 262 265 267 268 267 266 266 267 268 269 271 272 273 272 271 272 274 276 277 278 279 280 281 284 287 291 294 298 300 301 303 305 308 311 314 316 317 318 319 321 322
250 247 245 244 244 243 243 243 243 245 246 247 249 252 253 254 254 255 255 251 249 249 248 249 251 252 250 249 250 253 255 258 260 261 263 266 267 267 267 265 265 266 266 268 271 272 272 271 272 273 274 275 277 277 278 280 282 286 289 293 296 300 303 304 306 308 310 312 313 315 316 317 318 319
251 247 243 242 242 242 242 243 243 244 245 247 248 251 253 255 255 257 257 254 249 250 248 248 250 251 251 249 248 251 254 257 259 260 261 264 266 266 266 264 263 265 265 266 268 271 272 272 272 273 273 274 274 275 276 277 279 283 286 290 293 297 301 303 305 306 307 309 310 312 313 313 314 315
250 247 241 239 240 240 240 241 242 244 245 246 247 249 251 254 255 258 261 258 250 248 249 248 250 251 251 251 250 251 253 256 258 259 260 262 264 264 264 263 263 265 265 265 266 268 270 271 272 273 273 273 274 275 275 276 278 281 284 287 291 294 297 299 301 303 304 306 307 308 308 308 309 310
247 247 242 239 240 241 240 240 240 242 244 245 246 248 249 251 253 256 260 259 251 245 246 248 251 253 252 251 252 253 253 255 258 259 260 261 262 261 260 260 261 262 264 264 265 265 267 269 271 272 272 272 274 275 277 278 279 281 284 286 288 290 293 295 298 300 302 303 304 305 305 304 305 306
244 246 244 241 241 243 243 241 239 240 242 243 244 247 248 249 251 253 256 257 252 245 243 245 249 254 256 254 253 253 253 254 257 259 260 260 259 258 257 257 257 258 261 262 263 264 266 268 268 269 270 271 273 275 277 279 280 280 282 284 287 289 291 293 296 298 299 301 303 303 303 303 303 304
241 244 243 242 242 244 244 242 239 238 239 241 242 244 247 248 249 251 253 254 253 247 243 243 244 250 256 258 256 254 251 252 255 258 258 258 257 255 254 254 254 256 257 259 262 263 264 265 266 267 269 271 273 274 275 277 279 280 281 282 285 287 290 292 295 297 299 300 301 301 301 302 302 304
239 241 241 240 241 243 244 243 240 239 239 240 241 242 244 246 248 250 251 253 253 249 245 244 243 245 250 256 259 257 252 250 252 255 257 256 255 254 253 252 253 255 256 257 259 261 262 263 265 267 269 271 272 272 273 275 277 279 281 282 284 287 289 291 293 295 297 298 299 299 300 300 302 304
238 239 239 239 239 241 242 242 241 241 242 243 243 242 243 245 246 248 250 251 252 251 247 245 244 244 246 251 257 259 256 250 249 252 255 255 253 252 252 252 252 255 257 257 258 259 260 262 264 267 269 271 272 272 273 275 277 280 282 285 286 287 288 289 290 291 293 295 296 297 298 298 300 302
238 238 238 238 238 240 241 242 242 243 244 245 246 245 244 245 245 246 248 248 250 251 249 246 245 245 246 247 252 258 259 253 249 250 253 254 253 252 252 251 251 254 257 258 258 259 260 262 265 267 269 271 272 273 275 277 279 282 283 285 285 285 285 286 287 288 290 291 293 295 296 297 298 300
239 238 238 237 237 240 242 243 244 245 245 246 247 246 245 245 245 245 245 247 249 250 249 247 246 246 246 246 248 254 259 257 252 250 252 254 253 252 250 250 251 253 256 258 260 260 261 263 264 266 268 270 273 275 277 280 281 282 282 283 283 284 285 285 286 288 289 290 291 293 295 296 298 298
240 239 239 238 237 239 242 244 245 245 246 246 247 247 245 245 245 245 245 246 247 248 248 248 247 246 246 246 247 250 256 259 258 253 252 253 254 253 251 250 250 252 254 257 260 261 262 262 263 265 267 270 273 276 279 280 280 280 280 282 283 285 286 286 287 288 290 290 290 292 295 296 297 299
240 240 240 239 239 239 241 242 243 243 245 246 247 248 247 245 244 245 244 244 245 247 247 246 246 247 246 247 248 249 252 257 260 258 254 253 255 255 253 251 251 252 254 256 258 261 262 262 263 265 267 270 273 276 278 279 278 279 280 282 284 285 286 287 288 288 288 289 290 291 293 295 297 299
239 240 240 240 240 240 240 241 241 241 242 244 246 247 249 247 245 244 244 243 244 245 246 245 245 246 247 247 249 251 251 252 256 259 259 256 254 255 255 254 253 254 255 257 259 261 263 264 265 266 267 268 271 274 276 277 278 279 280 281 283 283 284 286 287 287 287 288 289 288 289 292 294 297
238 239 239 240 240 240 240 240 239 239 240 243 245 247 249 249 247 245 243 243 244 245 246 246 245 245 246 247 250 252 253 252 253 256 259 259 256 255 255 255 256 257 258 258 259 261 264 266 267 267 266 266 268 270 273 276 279 280 280 280 281 282 283 284 284 285 285 286 287 287 288 289 291 293
237 238 239 239 239 239 239 239 238 238 239 242 244 247 249 250 248 246 244 243 244 246 246 246 246 246 246 247 249 252 253 254 254 254 256 258 259 258 257 256 256 258 260 260 259 260 263 265 267 267 267 266 267 268 271 273 276 278 279 280 281 282 282 283 284 284 284 284 285 286 287 288 289 290
237 237 238 238 238 238 238 238 237 237 238 240 243 246 248 249 248 247 245 244 245 247 248 248 247 248 248 247 248 251 253 254 254 255 256 257 260 261 262 260 256 256 259 261 262 261 261 263 265 267 268 269 270 270 271 271 272 274 276 278 279 280 281 282 282 283 283 284 284 286 288 289 289 289
236 237 237 237 237 236 237 238 238 237 238 239 241 244 246 247 245 245 245 246 247 248 250 250 249 248 249 249 248 250 253 254 255 256 257 258 259 261 263 263 261 259 259 261 262 262 261 263 265 267 268 269 270 270 271 270 270 270 271 273 274 276 277 279 280 281 282 284 286 289 290 290 289 288
238 237 237 237 236 235 235 236 238 238 239 240 241 243 244 244 243 242 245 247 249 250 251 251 250 248 248 249 249 249 251 254 256 256 257 257 259 260 262 264 264 263 262 262 262 263 261 261 264 267 269 269 270 270 271 271 271 271 271 271 271 272 274 275 277 278 280 283 287 290 291 290 288 287
240 239 238 237 236 235 234 234 236 237 238 240 241 242 244 244 242 241 243 247 251 254 253 251 250 249 249 250 251 250 250 252 253 255 256 257 258 259 261 262 263 264 264 264 265 265 263 261 262 265 266 268 269 271 272 273 274 275 276 275 274 273 274 275 276 277 279 280 283 287 289 289 287 286
242 241 240 238 237 235 233 234 235 236 236 239 241 242 243 244 243 242 243 246 251 256 256 252 250 250 251 252 255 255 253 253 253 254 255 256 257 258 260 260 261 262 262 263 265 266 266 265 265 265 265 267 269 271 273 274 276 278 279 279 278 277 276 276 277 278 279 279 281 284 287 289 288 286
244 242 242 240 239 237 234 234 235 236 235 237 239 241 242 243 243 244 245 247 249 252 255 254 252 251 252 254 257 258 257 256 254 254 254 255 256 257 258 259 260 261 261 261 264 267 270 270 269 269 269 270 271 272 273 274 275 276 277 278 279 279 278 278 279 279 280 281 281 283 285 288 289 287
243 243 242 242 241 239 236 235 236 236 236 236 238 239 241 242 243 244 245 246 247 249 251 253 253 253 254 256 258 259 259 258 257 255 254 254 255 256 257 259 260 261 262 261 263 266 269 270 271 271 272 273 273 273 273 273 274 274 275 276 277 279 279 280 280 281 282 282 282 282 283 285 285 287
242 241 241 241 241 241 239 237 236 236 235 236 237 238 239 241 242 243 244 244 246 247 248 251 253 254 256 258 259 259 260 260 260 259 257 255 255 256 258 260 261 263 264 263 263 264 266 269 271 272 273 274 275 275 274 273 273 274 274 275 276 278 279 281 282 283 283 283 282 282 282 283 283 285
241 240 239 239 240 241 240 239 237 236 234 235 236 237 238 240 241 242 242 243 244 246 247 250 253 254 256 258 259 260 261 262 262 261 260 257 256 256 258 260 262 264 265 265 265 265 265 268 271 272 272 274 275 274 273 272 272 272 273 274 276 278 279 280 281 281 281 282 283 282 282 282 282 283
240 239 238 238 238 239 239 239 238 236 234 234 235 236 238 239 241 241 242 244 245 247 248 249 251 253 256 259 261 262 263 261 260 260 259 257 256 256 258 260 262 263 264 265 266 266 265 267 270 271 270 271 272 272 274 275 274 274 274 276 278 278 279 280 280 281 281 281 281 281 280 280 282 283
239 239 238 237 237 237 238 237 237 237 235 234 234 235 237 238 240 241 242 244 246 248 248 249 251 253 255 258 262 264 263 260 257 255 255 255 255 257 259 260 261 263 264 266 267 266 265 266 269 268 268 269 271 273 276 277 276 275 275 276 278 280 281 281 281 281 281 278 277 277 277 279 281 282
240 239 238 237 237 237 237 237 236 236 235 234 233 234 235 237 240 241 240 242 245 248 248 250 252 253 255 257 259 261 260 258 254 252 254 255 257 260 261 261 263 264 265 266 265 264 263 265 267 267 267 269 272 274 275 275 275 274 274 275 277 279 280 280 281 282 279 275 274 277 278 278 279 280
241 238 237 237 237 238 238 237 236 235 235 234 233 233 234 235 237 239 239 240 243 246 248 249 251 252 254 255 256 257 258 258 256 255 256 257 258 260 261 263 265 265 264 262 261 262 264 265 264 265 267 270 272 274 274 273 273 272 272 273 274 275 276 278 283 286 282 278 278 280 279 278 278 278
244 238 235 234 234 237 238 237 235 234 234 233 233 234 234 234 234 236 238 239 242 245 246 248 249 250 252 253 253 254 255 254 254 254 255 256 258 260 261 262 264 263 261 260 261 264 265 264 262 264 267 269 270 272 272 271 270 269 269 271 270 268 270 277 283 285 284 282 281 280 278 277 277 276
241 237 233 231 233 238 241 239 236 235 234 233 232 233 235 235 235 236 238 240 243 245 246 249 250 251 252 252 252 251 251 251 251 252 253 255 258 261 262 263 262 262 260 260 261 262 262 261 261 263 265 267 268 268 268 267 266 266 266 266 264 264 271 280 284 284 282 280 278 277 276 275 274 274
232 233 231 229 233 241 244 241 238 238 236 234 233 234 235 236 238 239 240 242 244 245 247 249 251 251 251 250 250 249 249 250 251 251 253 257 260 262 263 263 261 260 260 260 261 261 259 259 261 262 264 266 265 264 263 263 262 262 261 261 264 270 277 281 283 282 281 279 276 275 274 273 273 273
221 225 229 231 235 241 242 237 235 239 239 236 235 235 236 237 239 241 241 241 243 245 245 245 246 246 246 247 249 250 249 250 252 254 257 260 260 259 259 259 258 256 256 257 258 257 256 257 259 261 262 262 260 258 258 258 258 259 259 262 268 274 278 279 280 279 278 276 274 273 272 271 271 272
210 213 224 232 234 234 231 226 228 235 237 235 234 233 233 234 236 237 238 238 239 243 245 244 243 245 247 250 252 254 255 256 257 257 257 255 253 253 252 252 252 252 252 253 254 254 254 255 256 258 258 258 258 257 258 259 261 262 263 264 268 272 275 276 277 277 275 273 272 272 272 271 271 272
210 207 216 226 230 229 227 224 229 234 234 231 231 231 231 233 235 237 238 238 238 240 244 245 246 249 253 256 258 259 258 257 254 253 252 251 251 250 249 249 251 253 254 255 255 255 255 256 257 257 257 258 259 261 262 263 265 266 266 267 269 271 273 274 273 273 272 271 271 271 272 271 271 272
198 202 214 220 222 227 230 229 231 233 231 230 233 234 234 235 237 239 241 242 242 244 246 249 251 253 256 257 258 257 255 251 249 249 250 251 252 252 251 251 253 255 256 256 257 258 259 261 262 262 262 263 264 266 267 268 269 269 270 270 270 271 271 272 271 270 269 269 269 270 271 271 271 272
178 182 199 205 205 208 215 220 226 228 226 227 231 234 236 238 239 241 243 244 244 246 248 251 253 253 252 251 249 248 246 245 246 248 249 251 253 254 255 255 256 258 258 258 258 260 263 265 266 266 266 266 267 268 270 271 272 272 273 273 273 273 273 273 272 272 271 271 271 272 272 273 273 273
165 176 186 192 196 200 203 208 217 223 224 227 230 232 234 236 237 239 241 242 242 242 244 245 246 245 244 243 241 241 242 243 244 246 248 251 253 254 254 256 257 259 260 260 261 262 263 265 265 265 265 266 267 268 269 270 271 272 273 273 273 274 274 274 274 273 273 274 274 275 276 277 277 277
36 275 218 193 203 218 216 213 215 218 220 224 228 230 231 232 232 233 234 234 235 235 236 237 239 239 241 242 244 247 250 250 250 251 253 256 258 259 260 260 261 262 263 263 264 264 265 265 265 265 265 266 267 268 269 268 269 270 272 272 273 273 273 274 274 274 274 275 275 276 277 278 279 279
179 193 209 205 205 215 220 221 222 221 222 225 229 231 232 233 234 235 237 237 238 239 240 243 247 250 253 255 257 260 262 263 263 263 263 263 264 265 266 266 266 266 266 266 266 266 266 267 267 267 267 267 267 268 269 269 269 270 271 272 273 273 273 274 274 275 275 276 276 277 277 278 279 280
217 206 203 201 200 202 207 215 224 227 229 233 237 240 242 243 244 245 245 246 247 248 250 252 255 258 261 263 264 266 267 268 269 269 269 269 269 268 268 269 269 269 269 269 269 269 270 270 270 270 270 270 270 271 271 272 272 273 273 274 275 275 275 275 275 276 276 276 277 277 278 278 279 279
252 243 223 211 210 215 222 231 242 244 241 242 246 250 251 252 253 255 255 254 255 255 257 258 260 262 264 265 266 267 267 268 268 269 269 270 271 272 272 272 273 273 273 273 273 274 274 274 275 274 274 274 275 275 275 275 276 276 277 277 278 279 279 279 279 279 279 279 279 279 279 280 280 280
271 269 254 242 242 244 241 247 260 266 260 255 256 258 260 259 259 261 261 261 261 261 261 262 263 264 265 266 267 267 268 268 269 269 270 271 271 273 273 274 275 276 276 276 276 277 277 277 278 278 277 277 277 278 278 278 278 278 278 278 279 279 279 280 281 281 281 282 282 283 283 283 283 283
279 282 279 273 270 268 265 267 274 277 271 264 262 263 265 266 266 267 267 266 266 265 265 265 265 266 266 267 267 268 268 269 269 269 270 270 271 272 272 273 274 274 275 275 276 276 276 276 277 277 277 277 277 278 278 278 278 278 278 278 278 279 279 280 281 282 283 284 284 285 285 285 286 286
280 278 277 276 274 270 269 272 276 278 277 274 270 268 268 269 271 272 272 272 271 270 269 268 267 266 266 266 266 267 267 268 268 269 269 270 270 271 271 272 273 273 273 274 274 275 275 275 275 275 275 276 275 275 276 276 276 276 277 277 277 278 278 279 280 281 282 284 285 285 285 286 287 288